Latest Coastal Weather Observations for Hamilton Island

IDQ60701

Issued at 3:52 am EST Friday 22 January 2021 (issued every 10 minutes, with the page automatically refreshed every 10 minutes)

About coastal observations | Map of coastal stations | Coastal observations for QLD | Marine services | Other Formats
Station Details ID: 033106 Name: HAMILTON ISLAND AIRPORT Lat: -20.37 Lon: 148.95 Height: 58.66 m
Data from the previous 72 hours. | See also: Recent months at Hamilton Island
Date/Time
EST
Wind Sea
Height
m
Swell Vis
km
Cloud Weather Temp
°C
Press
MSL
hPa
Rain since
9am
mm
Dir  Spd
kts
Gust
kts
Height
m
Period
s
Dir
22/03:30am ESE 20 24 - - - - 10 Partly cloudy - 25.3 1009.8 5.8
22/03:00am ESE 19 23 - - - - 10 Mostly clear - 25.3 1009.8 5.8
22/02:30am SE 20 24 - - - - 10 - - 25.1 1010.0 5.8
22/02:00am SE 22 25 - - - - 10 - - 25.3 1010.0 5.8
22/01:30am ESE 21 24 - - - - 10 Partly cloudy - 25.5 1010.3 5.8
22/01:00am ESE 20 25 - - - - 10 Partly cloudy - 25.6 1010.7 5.8
22/12:30am ESE 21 25 - - - - 10 Partly cloudy - 25.6 1011.0 5.8
22/12:00am ESE 21 25 - - - - 10 Mostly clear - 25.6 1011.4 5.8
 
Date/Time
EST
Wind Sea
Height
m
Swell Vis
km
Cloud Weather Temp
°C
Press
MSL
hPa
Rain since
9am
mm
Dir  Spd
kts
Gust
kts
Height
m
Period
s
Dir
21/11:30pm ESE 23 28 - - - - 10 - - 25.7 1011.6 5.8
21/11:00pm ESE 24 29 - - - - 10 Partly cloudy - 25.7 1011.8 5.8
21/10:30pm ESE 24 29 - - - - 10 Partly cloudy - 25.7 1011.9 5.8
21/10:00pm ESE 25 29 - - - - 10 Partly cloudy - 25.8 1012.2 5.8
21/09:30pm ESE 25 28 - - - - 10 Partly cloudy - 25.8 1011.9 5.8
21/09:00pm ESE 24 30 - - - - 10 Partly cloudy - 25.9 1011.8 5.8
21/08:30pm ESE 26 29 - - - - 10 Partly cloudy - 25.9 1011.5 5.8
21/08:00pm ESE 23 27 - - - - 10 Partly cloudy - 26.0 1011.5 5.8
21/07:30pm ESE 24 28 - - - - 10 Partly cloudy - 25.9 1011.2 5.8
21/07:00pm ESE 23 27 - - - - 10 Partly cloudy - 26.0 1011.1 5.8
21/06:30pm ESE 27 31 - - - - 10 Partly cloudy - 26.1 1010.9 5.8
21/06:00pm SE 26 30 - - - - 10 Cloudy - 26.1 1010.6 5.8
21/05:30pm SE 26 31 - - - - 10 Partly cloudy - 26.0 1010.5 5.8
21/05:00pm SE 26 30 - - - - 10 Partly cloudy - 25.7 1010.3 5.8
21/04:53pm SE 24 31 - - - - 10 Partly cloudy - 25.6 1010.3 5.8
21/04:33pm SE 23 26 - - - - 6 Partly cloudy - 24.4 1010.3 5.8
21/04:30pm SE 24 31 - - - - 7 Partly cloudy - 24.2 1010.2 5.6
21/04:19pm ESE 23 33 - - - - 10 Partly cloudy - 25.3 1010.1 4.2
21/04:00pm ESE 22 26 - - - - 10 Partly cloudy - 25.6 1010.3 4.2
21/03:40pm ESE 17 28 - - - - 8 Partly cloudy - 24.2 1010.6 4.2
21/03:39pm ESE 18 28 - - - - 8 Partly cloudy - 24.1 1010.6 4.2
21/03:30pm ESE 21 26 - - - - 6 Partly cloudy - 24.6 1010.8 3.0
21/03:20pm ESE 17 25 - - - - 6 Partly cloudy - 25.1 1010.8 2.2
21/03:00pm SE 22 26 - - - - 10 Cloudy - 26.0 1010.8 0.0
21/02:30pm ESE 21 26 - - - - 10 Partly cloudy - 27.0 1011.0 0.0
21/02:08pm SE 21 31 - - - - 10 Partly cloudy - 27.8 1011.0 0.0
21/02:00pm SE 19 23 - - - - 10 Partly cloudy - 27.3 1011.2 0.0
21/01:30pm SE 17 21 - - - - 10 Partly cloudy - 28.3 1011.4 0.0
21/01:00pm SE 19 21 - - - - 10 Partly cloudy - 28.4 1011.7 0.0
21/12:30pm ESE 20 23 - - - - 10 - - 28.6 1012.0 0.0
21/12:00pm ESE 20 25 - - - - 10 Mostly clear - 28.1 1012.3 0.0
21/11:30am ESE 21 24 - - - - 10 Partly cloudy - 28.6 1012.8 0.0
21/11:00am ESE 18 21 - - - - 10 - - 28.0 1013.1 0.0
21/10:30am ESE 17 20 - - - - 10 Partly cloudy - 27.6 1013.2 0.0
21/10:00am ESE 19 21 - - - - 10 Partly cloudy - 26.3 1013.3 0.0
21/09:30am ESE 19 22 - - - - 10 Partly cloudy - 28.0 1013.4 0.0
21/09:00am ESE 20 24 - - - - 10 Partly cloudy - 27.3 1013.3 6.0
21/08:30am ESE 19 21 - - - - 10 Partly cloudy - 27.9 1013.4 6.0
21/08:00am ESE 21 24 - - - - 10 Partly cloudy - 26.6 1013.2 6.0
21/07:30am ESE 19 23 - - - - 10 Partly cloudy - 27.2 1013.0 6.0
21/07:00am ESE 21 26 - - - - 10 Partly cloudy - 26.9 1012.7 6.0
21/06:30am ESE 23 27 - - - - 10 Partly cloudy - 26.4 1012.2 6.0
21/06:00am ESE 24 30 - - - - 10 Mostly cloudy - 25.9 1011.6 6.0
21/05:30am ESE 24 29 - - - - 10 Partly cloudy - 25.8 1011.1 6.0
21/05:00am ESE 23 28 - - - - 10 Partly cloudy - 25.5 1011.0 6.0
21/04:30am ESE 22 29 - - - - 9 Partly cloudy - 25.0 1010.9 6.0
21/04:00am ESE 18 28 - - - - 10 Partly cloudy - 26.0 1011.0 5.0
21/03:30am ESE 20 23 - - - - 10 - - 26.0 1010.9 5.0
21/03:00am ESE 21 27 - - - - 10 Mostly clear - 26.0 1010.8 5.0
21/02:30am SE 25 29 - - - - 10 Partly cloudy - 26.0 1010.8 5.0
21/02:00am ESE 23 27 - - - - 10 Partly cloudy - 26.1 1010.9 5.0
21/01:30am ESE 22 29 - - - - 10 Partly cloudy - 26.2 1010.9 5.0
21/01:00am ESE 24 28 - - - - 10 Partly cloudy - 26.3 1011.1 5.0
21/12:30am ESE 24 29 - - - - 10 Partly cloudy - 26.4 1011.4 5.0
21/12:00am ESE 18 22 - - - - 10 Cloudy - 26.4 1012.0 5.0
 
Date/Time
EST
Wind Sea
Height
m
Swell Vis
km
Cloud Weather Temp
°C
Press
MSL
hPa
Rain since
9am
mm
Dir  Spd
kts
Gust
kts
Height
m
Period
s
Dir
20/11:30pm ESE 20 23 - - - - 10 Partly cloudy - 26.4 1012.3 5.0
20/11:00pm ESE 23 27 - - - - 10 - - 26.6 1012.5 5.0
20/10:30pm ESE 21 24 - - - - 10 Partly cloudy - 26.4 1012.7 5.0
20/10:00pm ESE 21 25 - - - - 10 Partly cloudy - 26.5 1012.7 5.0
20/09:30pm ESE 19 23 - - - - 10 Partly cloudy - 26.5 1012.7 5.0
20/09:00pm ESE 19 22 - - - - 10 Cloudy - 26.5 1012.5 5.0
20/08:30pm ESE 20 25 - - - - 10 Partly cloudy - 26.5 1012.2 5.0
20/08:00pm ESE 20 23 - - - - 10 Partly cloudy - 26.6 1012.4 5.0
20/07:30pm ESE 21 25 - - - - 10 Partly cloudy - 26.6 1012.4 5.0
20/07:00pm ESE 19 23 - - - - 10 Partly cloudy - 26.6 1012.4 5.0
20/06:30pm ESE 17 20 - - - - 10 Partly cloudy - 26.7 1012.0 5.0
20/06:00pm ESE 17 23 - - - - 10 Cloudy - 26.8 1011.5 5.0
20/05:30pm ESE 19 22 - - - - 10 - - 26.9 1011.2 5.0
20/05:00pm ESE 19 24 - - - - 10 - - 26.9 1011.1 5.0
20/04:30pm ESE 20 24 - - - - 10 Partly cloudy - 26.9 1011.0 5.0
20/04:00pm SE 20 23 - - - - 10 Partly cloudy - 26.9 1010.9 5.0
20/03:30pm SE 19 22 - - - - 10 Partly cloudy - 27.1 1011.1 5.0
20/03:00pm ESE 19 23 - - - - 10 Cloudy Recent precip. 27.3 1011.2 5.0
20/02:30pm SE 21 24 - - - - 10 Partly cloudy - 27.5 1011.2 5.0
20/02:00pm ESE 19 22 - - - - 10 Partly cloudy - 27.7 1011.7 4.8
20/01:30pm ESE 19 25 - - - - 9 Partly cloudy - 26.6 1011.8 4.8
20/01:00pm ESE 18 21 - - - - 10 Partly cloudy - 28.2 1012.0 4.8
20/12:30pm ESE 18 22 - - - - 10 Partly cloudy - 27.4 1012.4 4.8
20/12:00pm ESE 16 19 - - - - 10 Cloudy Recent precip. 26.5 1012.7 4.8
20/11:45am SE 13 16 - - - - 10 Partly cloudy - 25.9 1012.9 4.8
20/11:30am SE 13 17 - - - - 10 Partly cloudy - 25.1 1013.0 4.8
20/11:17am SE 19 22 - - - - 6 Partly cloudy - 24.7 1013.1 4.4
20/11:00am SE 18 20 - - - - 10 Partly cloudy - 25.1 1013.2 3.6
20/10:52am SE 19 22 - - - - 10 Partly cloudy - 25.0 1013.3 3.6
20/10:43am ESE 18 22 - - - - 10 Partly cloudy - 25.6 1013.2 3.6
20/10:31am ESE 18 23 - - - - 10 Partly cloudy - 25.7 1013.3 3.6
20/10:30am ESE 17 23 - - - - 10 Partly cloudy - 25.7 1013.3 3.6
20/10:17am E 13 16 - - - - 10 Partly cloudy - 25.4 1013.3 3.6
20/10:00am ESE 15 18 - - - - 6 Partly cloudy - 24.8 1013.4 3.6
20/09:59am ESE 15 18 - - - - 6 Partly cloudy - 24.7 1013.4 3.6
20/09:52am ESE 14 18 - - - - 9 Partly cloudy - 24.6 1013.4 3.6
20/09:36am E 13 17 - - - - 5 Partly cloudy - 23.9 1013.5 3.4
20/09:30am ESE 15 21 - - - - 4 Partly cloudy - 24.0 1013.5 3.4
20/09:14am SE 15 25 - - - - 6 Partly cloudy - 24.6 1013.4 0.2
20/09:08am SE 11 14 - - - - 10 Partly cloudy - 25.8 1013.5 0.0
20/09:00am SE 10 12 - - - - 10 Cloudy - 26.1 1013.4 12.0
20/08:30am SE 10 13 - - - - 10 Partly cloudy - 27.5 1013.4 12.0
20/08:00am ESE 13 15 - - - - 10 Partly cloudy - 26.2 1013.0 12.0
20/07:51am ESE 14 15 - - - - 10 Partly cloudy - 25.8 1013.0 12.0
20/07:30am SE 18 21 - - - - 10 Partly cloudy - 26.0 1013.0 12.0
20/07:19am SE 17 19 - - - - 10 Partly cloudy - 26.3 1012.8 12.0
20/07:00am SSE 17 20 - - - - 10 Partly cloudy - 25.9 1012.5 12.0
20/06:30am SSE 17 20 - - - - 10 Partly cloudy - 25.7 1012.0 12.0
20/06:00am SSE 13 16 - - - - 10 Partly cloudy - 25.5 1011.8 12.0
20/05:37am SE 15 17 - - - - 10 Partly cloudy - 25.4 1011.3 12.0
20/05:30am SE 15 17 - - - - 10 Partly cloudy - 25.4 1011.2 12.0
20/05:00am SSE 14 17 - - - - 10 Partly cloudy - 25.5 1010.9 12.0
20/04:30am SE 12 14 - - - - 10 Partly cloudy - 25.6 1010.9 12.0
20/04:22am SE 12 14 - - - - 10 Partly cloudy - 25.6 1010.8 12.0
20/04:00am SE 10 12 - - - - 10 Partly cloudy - 25.5 1010.7 12.0
20/03:30am SE 8 10 - - - - 10 Partly cloudy - 25.4 1010.6 12.0
20/03:00am SE 8 10 - - - - 10 Partly cloudy - 25.4 1010.3 12.0
20/02:30am SE 8 9 - - - - 10 - - 25.4 1010.5 12.0
20/02:03am SE 8 10 - - - - 10 Partly cloudy - 25.5 1010.8 12.0
20/02:00am SE 8 9 - - - - 10 Partly cloudy - 25.5 1010.9 12.0
20/01:30am SSE 8 9 - - - - 10 Partly cloudy - 25.5 1011.0 12.0
20/01:21am SE 7 8 - - - - 10 Partly cloudy - 25.4 1011.1 12.0
20/01:20am SE 7 8 - - - - 10 Partly cloudy - 25.4 1011.1 12.0
20/01:00am SE 8 9 - - - - 10 Partly cloudy - 25.4 1011.3 12.0
20/12:54am SE 7 9 - - - - 10 Partly cloudy - 25.5 1011.3 12.0
20/12:30am SE 7 8 - - - - 10 Partly cloudy - 25.3 1011.6 12.0
20/12:20am ESE 7 9 - - - - 10 Partly cloudy - 25.5 1011.7 12.0
20/12:00am ESE 10 11 - - - - 10 Cloudy - 25.6 1011.7 12.0
 
Date/Time
EST
Wind Sea
Height
m
Swell Vis
km
Cloud Weather Temp
°C
Press
MSL
hPa
Rain since
9am
mm
Dir  Spd
kts
Gust
kts
Height
m
Period
s
Dir
19/11:51pm ESE 8 10 - - - - 10 Partly cloudy - 25.6 1011.7 12.0
19/11:30pm ESE 9 11 - - - - 10 Partly cloudy - 25.6 1012.0 12.0
19/11:00pm E 9 11 - - - - 10 Partly cloudy - 25.6 1012.1 12.0
19/10:30pm E 8 10 - - - - 10 Partly cloudy - 25.4 1012.4 12.0
19/10:00pm E 8 11 - - - - 10 Cloudy - 25.3 1012.4 12.0
19/09:30pm E 10 12 - - - - 10 Cloudy - 25.4 1012.3 12.0
19/09:00pm E 11 13 - - - - 10 Mostly cloudy - 25.4 1012.3 12.0
19/08:30pm E 13 15 - - - - 10 Partly cloudy - 25.3 1012.1 12.0
19/08:00pm ESE 13 15 - - - - 10 Partly cloudy - 25.0 1012.0 12.0
19/07:30pm ESE 13 15 - - - - 10 Partly cloudy - 25.0 1011.6 12.0
19/07:00pm ESE 16 18 - - - - 10 Partly cloudy - 25.1 1011.5 12.0
19/06:30pm ESE 15 17 - - - - 10 Partly cloudy - 25.2 1011.3 12.0
19/06:00pm E 17 19 - - - - 10 Cloudy - 25.3 1010.9 12.0
19/05:30pm E 16 19 - - - - 10 Partly cloudy - 25.2 1010.4 12.0
19/05:14pm ESE 14 18 - - - - 9 Partly cloudy - 25.0 1010.2 12.0
19/05:00pm E 13 15 - - - - 6 Partly cloudy - 24.6 1010.1 12.0
19/04:47pm E 15 17 - - - - 4 Partly cloudy - 24.4 1009.9 11.8
19/04:40pm ESE 16 18 - - - - 6 Partly cloudy - 24.4 1010.0 11.4
19/04:30pm ESE 17 20 - - - - 10 Partly cloudy - 24.7 1010.0 11.2
19/04:14pm ESE 17 20 - - - - 10 Partly cloudy - 24.9 1009.9 11.2
19/04:00pm ESE 16 19 - - - - 5 Partly cloudy - 24.6 1009.9 11.2
19/03:49pm ESE 16 20 - - - - 6 Partly cloudy - 24.5 1009.9 11.0
19/03:30pm ESE 17 20 - - - - 10 Partly cloudy - 25.4 1009.9 10.8
19/03:03pm E 11 13 - - - - 10 Partly cloudy - 25.0 1010.0 10.8
19/03:00pm E 11 15 - - - - 10 Cloudy Recent precip. 25.0 1010.0 10.8
19/02:30pm E 15 18 - - - - 9 Partly cloudy - 25.1 1010.3 10.8
19/02:28pm E 15 18 - - - - 8 Partly cloudy - 25.0 1010.3 10.8
19/02:00pm E 13 15 - - - - 5 Partly cloudy - 23.6 1010.7 10.4
19/01:38pm E 15 19 - - - - 6 Partly cloudy - 23.2 1010.7 10.2
19/01:30pm E 15 18 - - - - 10 Partly cloudy - 23.5 1010.7 10.2
19/01:00pm ENE 10 13 - - - - 8 Partly cloudy - 23.7 1011.0 8.8
19/12:30pm E 13 16 - - - - 9 Partly cloudy - 24.1 1011.2 6.4
19/12:12pm SE 11 13 - - - - 10 Partly cloudy - 25.1 1011.4 4.8
19/12:00pm ESE 12 15 - - - - 10 Cloudy Rain 24.9 1011.4 4.6
19/11:30am ESE 12 14 - - - - 9 Partly cloudy - 25.1 1011.7 4.0
19/11:00am SE 15 18 - - - - 10 Partly cloudy - 25.1 1011.7 3.2
19/10:30am SE 14 16 - - - - 8 Partly cloudy - 25.1 1012.0 1.8
19/10:00am ESE 14 17 - - - - 8 Partly cloudy - 25.3 1012.0 0.4
19/09:40am ESE 13 15 - - - - 10 Partly cloudy - 25.8 1012.2 0.0
19/09:30am SE 13 16 - - - - 10 Partly cloudy - 25.8 1012.1 0.0
19/09:06am ESE 12 15 - - - - 10 Partly cloudy - 25.8 1011.9 0.0
19/09:00am ESE 13 15 - - - - 10 Cloudy - 25.8 1011.9 41.2
19/08:30am ESE 13 15 - - - - 10 Partly cloudy - 25.8 1011.6 41.2
19/08:13am ESE 12 13 - - - - 10 Partly cloudy - 25.8 1011.5 41.2
19/08:00am SE 12 14 - - - - 10 Partly cloudy - 25.9 1011.5 41.2
19/07:30am SE 13 15 - - - - 10 Partly cloudy - 25.3 1011.5 41.2
19/07:00am SE 13 15 - - - - 10 Cloudy - 24.7 1011.2 41.2
19/06:46am SE 14 17 - - - - 10 Cloudy - 24.6 1010.9 41.2
19/06:30am SE 13 16 - - - - 10 Partly cloudy - 24.4 1010.7 41.2
19/06:10am SE 12 14 - - - - 10 Partly cloudy - 24.1 1010.5 41.2
19/06:00am SE 13 16 - - - - 10 Cloudy - 24.1 1010.4 41.2
19/05:30am SE 13 16 - - - - 10 Partly cloudy - 23.8 1010.0 41.2
19/05:03am SE 14 17 - - - - 10 Cloudy - 23.6 1009.6 41.2
19/05:00am SE 14 16 - - - - 9 Cloudy - 23.5 1009.7 41.2
19/04:30am SE 14 17 - - - - 3 Cloudy - 23.5 1009.3 41.2
19/04:00am SE 14 16 - - - - 4 Partly cloudy - 23.4 1009.4 40.8

Other formats

Comma delimited format used in spreadsheet applications
http://www.bom.gov.au/fwo/IDQ60701/IDQ60701.94368.axf

JavaScript Object Notation format (JSON) in row-major order
http://www.bom.gov.au/fwo/IDQ60701/IDQ60701.94368.json

Data quality

Most of these data are generated automatically and are frequently updated. Quality checks on data are not normally performed. It is possible for incorrect values to appear. Refer to information at About Latest Weather Observations and please check the disclaimer before using these data.